TimeEST,TemperatureF,Dew PointF,Humidity,Sea Level PressureIn,VisibilityMPH,Wind Direction,Wind SpeedMPH,Gust SpeedMPH,PrecipitationIn,Events,Conditions,WindDirDegrees,DateUTC
12:15 AM,28.4,14.0,55,29.59,10.0,West,18.4,21.9,N/A,,Clear,280,2013-02-21 05:15:00
12:35 AM,28.4,14.0,55,29.60,10.0,West,16.1,23.0,N/A,,Clear,280,2013-02-21 05:35:00
12:55 AM,28.4,14.0,55,29.60,10.0,West,16.1,23.0,N/A,,Clear,280,2013-02-21 05:55:00
1:15 AM,26.6,14.0,59,29.61,10.0,West,15.0,-,N/A,,Clear,270,2013-02-21 06:15:00
1:35 AM,26.6,14.0,59,29.62,10.0,West,11.5,-,N/A,,Clear,280,2013-02-21 06:35:00
1:55 AM,26.6,12.2,55,29.61,10.0,West,12.7,19.6,N/A,,Clear,280,2013-02-21 06:55:00
2:15 AM,26.6,14.0,59,29.61,10.0,West,15.0,20.7,N/A,,Clear,270,2013-02-21 07:15:00
2:55 AM,26.6,12.2,55,29.62,10.0,West,13.8,20.7,N/A,,Clear,270,2013-02-21 07:55:00
3:15 AM,26.6,14.0,59,29.63,10.0,West,6.9,-,N/A,,Clear,280,2013-02-21 08:15:00
3:35 AM,26.6,14.0,59,29.63,10.0,West,9.2,-,N/A,,Clear,270,2013-02-21 08:35:00
3:55 AM,26.6,12.2,55,29.63,10.0,WNW,10.4,-,N/A,,Clear,290,2013-02-21 08:55:00
4:15 AM,26.6,10.4,51,29.62,10.0,West,15.0,19.6,N/A,,Clear,280,2013-02-21 09:15:00
4:35 AM,26.6,10.4,51,29.63,10.0,WNW,10.4,17.3,N/A,,Clear,290,2013-02-21 09:35:00
4:55 AM,24.8,10.4,54,29.63,10.0,WNW,12.7,19.6,N/A,,Clear,290,2013-02-21 09:55:00
5:15 AM,24.8,10.4,54,29.65,10.0,West,13.8,17.3,N/A,,Clear,280,2013-02-21 10:15:00
5:35 AM,24.8,8.6,50,29.66,10.0,WNW,10.4,16.1,N/A,,Clear,290,2013-02-21 10:35:00
5:55 AM,24.8,10.4,54,29.65,10.0,West,15.0,20.7,N/A,,Clear,280,2013-02-21 10:55:00
6:15 AM,23.0,8.6,54,29.67,10.0,WNW,9.2,-,N/A,,Clear,290,2013-02-21 11:15:00
6:55 AM,23.0,8.6,54,29.69,10.0,WNW,9.2,18.4,N/A,,Clear,290,2013-02-21 11:55:00
7:15 AM,23.0,10.4,59,29.70,10.0,West,10.4,-,N/A,,Clear,270,2013-02-21 12:15:00
7:35 AM,23.0,8.6,54,29.70,10.0,West,12.7,17.3,N/A,,Clear,280,2013-02-21 12:35:00
7:55 AM,23.0,8.6,54,29.70,10.0,WNW,9.2,17.3,N/A,,Clear,300,2013-02-21 12:55:00
8:15 AM,23.0,10.4,59,29.71,10.0,WNW,10.4,16.1,N/A,,Clear,300,2013-02-21 13:15:00
8:35 AM,23.0,10.4,59,29.71,10.0,West,11.5,17.3,N/A,,Clear,280,2013-02-21 13:35:00
8:55 AM,24.8,8.6,50,29.71,10.0,WNW,10.4,-,N/A,,Clear,300,2013-02-21 13:55:00
9:15 AM,24.8,8.6,50,29.71,10.0,West,15.0,-,N/A,,Clear,280,2013-02-21 14:15:00
9:35 AM,24.8,10.4,54,29.72,10.0,NW,9.2,16.1,N/A,,Clear,310,2013-02-21 14:35:00
9:56 AM,24.8,8.6,50,29.71,10.0,WNW,13.8,18.4,N/A,,Clear,290,2013-02-21 14:56:00
10:15 AM,26.6,10.4,51,29.72,10.0,NW,9.2,21.9,N/A,,Clear,320,2013-02-21 15:15:00
10:35 AM,26.6,8.6,47,29.71,10.0,NW,10.4,19.6,N/A,,Clear,310,2013-02-21 15:35:00
10:55 AM,26.6,8.6,47,29.71,10.0,WNW,9.2,19.6,N/A,,Clear,300,2013-02-21 15:55:00
11:15 AM,26.6,10.4,51,29.71,10.0,NW,10.4,18.4,N/A,,Clear,320,2013-02-21 16:15:00
11:35 AM,26.6,8.6,47,29.71,10.0,WNW,5.8,18.4,N/A,,Partly Cloudy,290,2013-02-21 16:35:00
12:15 PM,26.6,12.2,55,29.71,10.0,WNW,12.7,18.4,N/A,,Partly Cloudy,300,2013-02-21 17:15:00
12:35 PM,26.6,12.2,55,29.71,10.0,NNW,9.2,-,N/A,,Mostly Cloudy,330,2013-02-21 17:35:00
12:55 PM,26.6,14.0,59,29.71,10.0,NW,6.9,18.4,N/A,,Mostly Cloudy,320,2013-02-21 17:55:00
1:15 PM,28.4,15.8,59,29.71,10.0,WNW,10.4,16.1,N/A,,Mostly Cloudy,300,2013-02-21 18:15:00
1:35 PM,26.6,15.8,64,29.72,10.0,NW,8.1,18.4,N/A,,Overcast,320,2013-02-21 18:35:00
1:55 PM,26.6,15.8,64,29.73,10.0,NW,9.2,18.4,N/A,,Overcast,320,2013-02-21 18:55:00
2:15 PM,26.6,15.8,64,29.73,10.0,NW,5.8,16.1,N/A,,Overcast,310,2013-02-21 19:15:00
2:35 PM,26.6,17.6,69,29.73,10.0,WNW,10.4,19.6,N/A,,Scattered Clouds,300,2013-02-21 19:35:00
2:55 PM,26.6,17.6,69,29.74,4.0,WNW,13.8,19.6,N/A,,Scattered Clouds,300,2013-02-21 19:55:00
3:15 PM,26.6,19.4,74,29.75,5.0,WNW,11.5,17.3,N/A,,Partly Cloudy,300,2013-02-21 20:15:00
3:35 PM,26.6,19.4,74,29.75,9.0,WNW,9.2,18.4,N/A,,Scattered Clouds,300,2013-02-21 20:35:00
3:55 PM,26.6,19.4,74,29.76,10.0,WNW,9.2,-,N/A,,Mostly Cloudy,290,2013-02-21 20:55:00
4:15 PM,26.6,19.4,74,29.77,10.0,WNW,12.7,18.4,N/A,,Overcast,300,2013-02-21 21:15:00
4:35 PM,26.6,19.4,74,29.79,10.0,NW,9.2,18.4,N/A,,Mostly Cloudy,310,2013-02-21 21:35:00
4:55 PM,26.6,19.4,74,29.80,10.0,NW,4.6,-,N/A,,Mostly Cloudy,310,2013-02-21 21:55:00
5:15 PM,28.4,19.4,69,29.81,10.0,WNW,11.5,-,N/A,,Partly Cloudy,300,2013-02-21 22:15:00
5:35 PM,28.4,19.4,69,29.82,10.0,WNW,11.5,16.1,N/A,,Clear,300,2013-02-21 22:35:00
5:55 PM,28.4,19.4,69,29.83,10.0,WNW,10.4,17.3,N/A,,Partly Cloudy,300,2013-02-21 22:55:00
6:15 PM,28.4,19.4,69,29.85,10.0,WNW,9.2,19.6,N/A,,Scattered Clouds,300,2013-02-21 23:15:00
6:35 PM,30.2,21.2,69,29.86,10.0,NNW,8.1,18.4,N/A,,Mostly Cloudy,330,2013-02-21 23:35:00
6:55 PM,30.2,23.0,75,29.88,10.0,NW,9.2,-,N/A,,Scattered Clouds,310,2013-02-21 23:55:00
7:15 PM,30.2,24.8,80,29.89,10.0,NNW,10.4,17.3,N/A,,Clear,330,2013-02-22 00:15:00
7:35 PM,33.8,24.8,70,29.91,10.0,NNW,12.7,24.2,N/A,,Scattered Clouds,340,2013-02-22 00:35:00
7:55 PM,33.8,26.6,75,29.93,10.0,North,6.9,25.3,N/A,,Overcast,360,2013-02-22 00:55:00
8:15 PM,33.8,24.8,70,29.94,10.0,NW,9.2,-,N/A,,Overcast,320,2013-02-22 01:15:00
8:35 PM,33.8,26.6,75,29.96,10.0,NW,9.2,-,N/A,,Overcast,310,2013-02-22 01:35:00
8:55 PM,33.8,26.6,75,29.98,10.0,NNW,10.4,19.6,N/A,,Overcast,340,2013-02-22 01:55:00
9:15 PM,33.8,24.8,70,29.99,10.0,NNW,9.2,16.1,N/A,,Overcast,340,2013-02-22 02:15:00
9:35 PM,33.8,24.8,70,30.01,10.0,NNW,8.1,23.0,N/A,,Overcast,340,2013-02-22 02:35:00
9:55 PM,35.6,24.8,65,30.02,10.0,North,9.2,20.7,N/A,,Overcast,360,2013-02-22 02:55:00
10:35 PM,35.6,24.8,65,30.04,10.0,North,11.5,20.7,N/A,,Overcast,360,2013-02-22 03:35:00
10:55 PM,33.8,24.8,70,30.05,10.0,North,10.4,19.6,N/A,,Overcast,360,2013-02-22 03:55:00
11:15 PM,33.8,24.8,70,30.06,10.0,North,10.4,20.7,N/A,,Overcast,360,2013-02-22 04:15:00
11:35 PM,33.8,23.0,65,30.08,10.0,North,6.9,19.6,N/A,,Overcast,360,2013-02-22 04:35:00
11:55 PM,33.8,23.0,65,30.09,10.0,North,9.2,17.3,N/A,,Overcast,360,2013-02-22 04:55:00